Location: Brantford
(43.1330°N, 80.2670°W)
Time: 07:37:51
(UTC-05:00)

Vanguard 2 - Visible Passes

Search period start: 17 November 2019 00:00
Search period end: 27 November 2019 00:00
Orbit: 554 x 2937 km, 32.9° (Epoch: 16 November)

Date Brightness Start Highest point End Pass type
(mag) Time Alt. Az. Time Alt. Az. Time Alt. Az.
20 Nov 11.7 05:34:30 10° S 05:40:58 15° SSE 05:46:20 10° ESE visible
21 Nov 11.4 05:49:43 10° SSW 05:58:52 20° SSE 06:05:50 10° ESE visible
22 Nov 11.2 06:05:54 10° SSW 06:16:45 26° SSE 06:24:33 10° ESE visible
23 Nov 11.7 04:16:53 10° S 04:24:37 15° SSE 04:31:11 10° ESE visible
23 Nov 10.9 06:22:37 10° SW 06:34:38 32° SSE 06:42:53 10° ESE visible
24 Nov 11.5 04:31:50 10° S 04:42:26 21° SSE 04:50:53 10° ESE visible
24 Nov 10.7 06:39:44 10° SW 06:52:31 38° SSE 07:01:01 10° ESE visible
25 Nov 11.2 04:47:48 10° SSW 05:00:15 27° SSE 05:09:44 10° ESE visible
26 Nov 11.8 03:00:00 10° S 03:07:49 15° SE 03:14:52 10° ESE visible
26 Nov 11.0 05:04:20 10° SSW 05:18:05 33° SSE 05:28:10 10° E visible
